Location: Hyderabad
(17.3833°N, 78.4667°E)
Time: 00:10:21
(UTC+05:30)

H-2A R/B - Visible Passes

Search period start: 24 May 2017 00:00
Search period end: 03 June 2017 00:00
Orbit: 246 x 33116 km, 28.2° (Epoch: 22 May)

Date Brightness Start Highest point End Pass type
(mag) Time Alt. Az. Time Alt. Az. Time Alt. Az.
24 May 4.6 11:34:30 10° SW 20:06:38 58° N 20:13:37 14° ENE visible
26 May 4.0 12:05:03 10° SW 20:32:49 58° N 20:37:14 25° ENE visible
28 May 3.4 12:37:34 10° SW 14:23:52 28° WSW 21:00:35 42° ENE visible
30 May 9.1 13:13:52 10° WSW 14:42:05 21° WSW 17:23:11 10° W visible
30 May 2.9 20:56:51 10° WNW 21:23:17 67° NNE 21:23:40 66° NE visible
01 Jun 3.1 21:30:14 10° WNW 21:46:27 61° WNW 21:46:27 61° WNW visible
